Other Public Products
Issued by NWS Grand Forks, ND

Home | Current Version | Previous Version | Text Only | Print | Product List | Glossary Off
Versions: 1 2 3 4 5 6 7 8 9 10 11 12 13 14 15 16 17 18 19 20 21 22 23 24 25 26 27 28 29 30 31 32 33 34 35 36 37 38 39 40 41 42 43 44 45 46 47 48 49 50

000
FPUS83 KFGF 242031
OPUFGF
PRAIRIE TO PINES WEATHER ROUNDUP
NATIONAL WEATHER SERVICE EASTERN NORTH DAKOTA/GRAND FORKS ND
300 PM CDT SAT SEP 24 2016

 **SATELLITE DATA USED TO AUGMENT SKY COVER AT AUTOMATED STATIONS**
 *****  WEATHER ACROSS EASTERN NORTH DAKOTA  *****

CITY           SKY/WX    TMP DP  RH WIND       PRES   REMARKS
GRAND FORKS    CLOUDY    77  66  68 SE22      29.79F
GRAND FORKS AF CLOUDY    75  68  78 S14       29.79F
GRAND CITY NWS NOT AVBL
BUXTON           N/A     79  73  83 SE20        N/A
DEVILS LAKE    CLOUDY    70  66  87 SE12      29.76F
FARGO          CLOUDY    79  65  62 SE18G29   29.81F
WAHPETON ARPT  CLOUDY    75  63  64 SE17G23   29.82F
$$

 *****  WEATHER ACROSS CENTRAL AND WESTERN NORTH DAKOTA  *****

CITY           SKY/WX    TMP DP  RH WIND       PRES   REMARKS
JAMESTOWN      CLOUDY    73  67  81 S14       29.76F
BISMARCK       MOSUNNY   76  60  57 S18G29    29.70F
MINOT          CLOUDY    75  66  73 E10       29.67F
MINOT AFB      PTSUNNY   75  66  73 SE9       29.66F
GARRISON         N/A     76  67  73 SE9G21    29.67F
WILLISTON      LGT RAIN  57  55  93 N17       29.72F FOG
DICKINSON      MOSUNNY   67  53  61 S18       29.67S
HETTINGER      MOSUNNY   68  49  50 SW21G30   29.73S
$$

 *****  OTHER OBSERVATIONS NORTHEAST NORTH DAKOTA  *****

CITY           SKY/WX    TMP DP  RH WIND       PRES   REMARKS
WALHALLA       FAIR      70  66  88 SE14G20   29.79F
LANGDON        CLOUDY    70  70 100 SE17G23   29.79F FOG
CAVALIER       CLOUDY    73  68  83 SE9       29.79F
GRAFTON        MOCLDY    75  68  78 SE18G25   29.81F
CANDO          MOCLDY    70  70 100 SE16      29.77S
FORT TOTTEN      N/A     73  68  84 SE8       29.95S
ROLLA          CLOUDY    72  68  88 SE13G20   29.76F
RUGBY          FAIR      73  66  78 S14G22    29.71F
 ***** THE ABOVE OBSERVATIONS ARE NON NWS ARE NOT QUALITY
        CONTROLLED AND MAY MIS-REPORT RAIN FOR SNOW...
$$

 *****  OTHER OBSERVATIONS SOUTHEAST NORTH DAKOTA *****

CITY           SKY/WX    TMP DP  RH WIND       PRES   REMARKS
COOPERSTOWN    NOT AVBL
VALLEY CITY    CLOUDY    73  73 100 S17G26    29.80F
OAKES          NOT AVBL
GWINNER        CLOUDY    77  70  78 SE13      29.80F
SHEYENNE NWR     N/A     78  68  70 S16       29.95S
BUFFALO          N/A     78  62  58 S21         N/A
WYNDMERE         N/A     79  68  69 SE13        N/A
 ***** THE ABOVE OBSERVATIONS ARE NON NWS ARE NOT QUALITY
       CONTROLLED AND MAY MIS-REPORT RAIN FOR SNOW...
$$

  *****  WEATHER ACROSS NORTHERN MINNESOTA  *****

CITY           SKY/WX    TMP DP  RH WIND       PRES   REMARKS
FLAG ISLAND    CLOUDY    63  59  88 SE9       29.94F
WARROAD        PTSUNNY   70  64  83 SE15G24   29.92F
ROSEAU         MOSUNNY   70  64  83 SE14G21   29.90S
HALLOCK        MOSUNNY   77  68  73 SE18      29.81F
THF RVR FALLS  CLOUDY    74  64  71 SE20      29.88F
HALSTAD          N/A     76  68  76 SE20        N/A
FOSSTON        PTSUNNY   72  61  68 SE14G21   29.89F
BAUDETTE       CLOUDY    66  60  81 SE18G24   29.96F
WASKISH        CLOUDY    66  61  82 SE13G18   29.97F
CROOKSTON      CLOUDY    75  66  73 S20       29.83F
$$
  *****  WEATHER ACROSS CENTRAL AND WEST MINNESOTA  *****

CITY           SKY/WX    TMP DP  RH WIND       PRES   REMARKS
BEMIDJI        CLOUDY    65  60  86 SE15G21   29.96F
PARK RAPIDS    CLOUDY    66  60  81 SE15      29.96F
WADENA         CLOUDY    64  63  94 SE17G23   29.95F FOG
DETROIT LAKES  PTSUNNY   70  63  78 SE17G25   29.90F
MOORHEAD       CLOUDY    75  64  69 SE20G29   29.83F
FERGUS FALLS   PTSUNNY   73  64  73 SE18      29.88F
ELBOW LAKE     FAIR      73  67  81 E16G24    29.87F
MORRIS MN      MOSUNNY   79  66  65 SE14G26   29.84F
STAPLES        CLOUDY    64  63  94 SE12      29.96F FOG
WHEATON        CLOUDY    81  70  69 SE16G25   29.84F
$$
  *****  WEATHER ELSEWHERE ACROSS MINNESOTA  *****

CITY           SKY/WX    TMP DP  RH WIND       PRES   REMARKS
DULUTH         CLOUDY    62  60  93 E13       30.08F
INTRNTL FALLS  CLOUDY    66  59  78 SE13      30.01F
ELY            CLOUDY    63  55  77 SE8       30.09F
CLOQUET        CLOUDY    61  55  82 E8        30.07F
BRAINERD       CLOUDY    64  61  90 SE9       30.00F FOG
HIBBING        CLOUDY    61  58  90 SE12      30.05F
ALEXANDRIA     CLOUDY    72  66  81 SE22G30   29.92F
SAINT CLOUD    CLOUDY    67  64  90 E13G18    29.99F
MINNEAPOLIS    CLOUDY    71  64  78 E17       30.02F
$$

  *****  WEATHER ACROSS SOUTH DAKOTA  *****

CITY           SKY/WX    TMP DP  RH WIND       PRES   REMARKS
SIOUX FALLS    LGT RAIN  67  64  90 S17G23    29.90R
BROOKINGS      CLOUDY    77  67  71 S14       29.83F
WATERTOWN      LGT RAIN  76  69  79 S13       29.84F
HURON          CLOUDY    77  65  66 S15G21    29.79F
SISSETON         N/A     79  68  69 S18G24    29.80F
ABERDEEN       CLOUDY    78  65  63 S17G23    29.78F
MITCHELL       CLOUDY    74  69  85 VRB3      29.81F
PIERRE         SUNNY     75  45  34 SW20G29   29.78F
MOBRIDGE       SUNNY     77  49  37 S18G26    29.73F
RAPID CITY     MOSUNNY   66  43  43 W17G23    29.83F
$$

  *****  SOME WEATHER IN NEARBY STATES *****

CITY           SKY/WX    TMP DP  RH WIND       PRES   REMARKS
GLASGOW MT     CLOUDY    53  50  89 NW24      29.86S
GREAT FALLS MT PTSUNNY   63  35  35 NW20G31   30.11R
CHEYENNE WY    CLOUDY    59  33  37 S8        30.04F
SCOTTSBLUFF NE PTSUNNY   69  38  32 W15G23    29.96F
OMAHA NE       RAIN      74  71  91 S9        29.93R FOG
DES MOINES IA  MOSUNNY   86  68  54 S18       29.97F
DAVENPORT IA   SUNNY     77  68  73 E10       30.10F
CHICAGO IL     PTSUNNY   73  63  70 NE12      30.15F
EAU CLAIRE WI  CLOUDY    67  60  78 SE13      30.09F
LA CROSSE WI   CLOUDY    71  63  75 SE8       30.10F
$$

  *****  SOME NATIONAL WEATHER *****

CITY           SKY/WX    TMP DP  RH WIND       PRES   REMARKS
LA GUARDIA NY  MOSUNNY   71  42  35 N12       30.07F
RALEIGH NC     MOSUNNY   91  64  40 W3        30.02F HX  92
ATLANTA GA     PTSUNNY   91  62  37 NW5       30.05F HX  91
NEW ORLEANS LA PTSUNNY   91  72  53 NE3       30.01F HX  98
OKLAHOMA CITY  PTSUNNY   85  69  58 S21G26    29.94F
ALBUQUERQUE NM MOSUNNY   69  27  20 VRB7      30.14F
SALT LAKE CITY PTSUNNY   60  45  57 NW8       30.26S
LOS ANGELES CA SUNNY     78  56  46 W10       29.99F
BOISE ID       SUNNY     64  38  38 W14       30.28S
SEATTLE WA     PTSUNNY   63  48  58 SW7       30.39F
$$

*** WEATHER ACROSS MANITOBA...SASKATCHEWAN AND ONTARIO ***
                ***ONTARIO***

CITY           SKY/WX    TMP DP  RH WIND       PRES   REMARKS
GERALDTON      PTSUNNY   63  39  42 SW8       30.24S
THUNDER BAY    MOSUNNY   68  52  56 E10       30.19F
SIOUX LOOKOUT  CLOUDY    57  52  82 SE9G17    30.09F
TORONTO        MOSUNNY   66  37  34 NE9       30.22S
BIG TROUT LK   SUNNY     63  36  36 SE8       30.16F
PICKLE LAKE    PTSUNNY   63  37  39 S10       30.16F
DRYDEN         CLOUDY    61  54  77 SE13G20   30.05F
KENORA         CLOUDY    59  57  94 SE13      29.99F
$$
                *** MANITOBA***

CITY           SKY/WX    TMP DP  RH WIND       PRES   REMARKS
BRANDON        FOG       61  61 100 E15       29.75F VSB 5/8
DAUPHIN        TSTM      59  57  94 SE9       29.78S
ISLAND LAKE    CLOUDY    57  46  67 E7        29.99F
PILOT MOUND      N/A     66  64  94 SE14        N/A
THE PAS        LGT RAIN  54  52  94 VRB2      29.84F VSB 1
THOMPSON       LGT RAIN  48  48 100 E6        29.96
WINNIPEG       CLOUDY    64  61  88 SE17      29.85F
LYNN LAKE      LGT RAIN  48  48 100 E10       29.89F
CHURCHILL      PTSUNNY   63  41  45 S8        30.11F
GILLAM         LGT RAIN  55  43  62 E5        30.09F
$$
                ***SASKATCHEWAN***

CITY           SKY/WX    TMP DP  RH WIND       PRES   REMARKS
ESTEVAN        DRZL/FOG  57  57 100 N18       29.72F VSB 1
KINDERSLEY     MOSUNNY   57  45  62 N20G28    30.00R
LLOYDMINSTER   PTSUNNY   55  39  54 NW20G28   29.98S
PRINCE ALBERT  CLOUDY    52  50  93 W8        29.90R
REGINA         LGT RAIN  52  52 100 NW21G26   29.86R FOG
YORKTON        LGT RAIN  52  52 100 N6        29.81S FOC1F1C2F2C3F3C4F4C5F5C6F6C7F7C8F8C9F9CaFaCbFbCcFcCdFdCe!



USA.gov is the U.S. government's official web portal to all federal, state and local government web resources and services.